Temp
14 14 13 11 11 10 9 9 8 7 7 6 6 5 5 5 4 4 3 3 2 2
13 13 12 10 10 9 8 8 7 7 6 6 5 5 4 4 4 3 3 2 2 2
12 11 11 10 9 8 8 7 7 6 6 5 4 4 4 4 3 3 2 2 1 1
10 10 10 9 8 8 7 6 6 5 5 4 4 3 3 3 2 2 2 1 1 1
9 9 9 8 7 7 6 6 5 5 4 4 3 3 2 2 2 1 1 1 0 -0
8 8 8 7 6 6 5 5 4 4 3 3 3 2 2 1 1 0 -0 -1 -1 -1
8 7 7 6 5 5 5 4 3 3 2 2 2 2 1 0 0 -0 -1 -2 -2 -2
6 6 6 5 5 4 4 3 3 2 2 1 1 1 -0 0 -0 -1 -2 -2 -2 -3
6 5 5 4 4 3 3 2 2 2 1 1 0 -0 -0 -0 -1 -2 -2 -2 -2 -3
5 4 4 3 3 3 2 2 1 1 0 -0 -1 -2 -1 -1 -1 -2 -2 -2 -2 -3
4 4 3 3 2 2 1 1 0 0 -1 -1 -1 -2 -2 -2 -2 -2 -2 -2 -3 -3
4 3 2 2 2 1 1 0 -0 -1 -1 -2 -2 -3 -3 -2 -2 -2 -2 -3 -3 -3
3 2 2 1 1 0 -0 -1 -1 -1 -2 -3 -3 -3 -3 -2 -2 -3 -3 -3 -3 -4
2 2 1 1 0 -1 -1 -1 -2 -2 -3 -3 -3 -4 -4 -3 -3 -3 -2 -3 -4 -4
Height
760 765 772 778 781 784 787 790 792 793 794 795 795 795 795 794 794 793 791 790 789 787
761 766 771 778 782 785 788 790 791 792 794 794 794 794 793 792 791 790 788 787 786 784
761 766 772 777 781 785 788 789 790 791 793 793 793 792 791 789 788 787 785 783 782 779
761 767 772 777 781 784 787 788 789 790 792 792 791 790 788 786 785 783 781 780 777 775
762 768 773 777 781 784 786 787 788 789 790 790 789 787 784 783 782 780 778 776 773 770
764 769 773 777 781 783 784 785 786 788 788 787 785 783 782 781 779 778 776 773 769 766
765 770 774 777 781 782 783 784 786 786 786 785 783 781 780 779 778 775 772 770 767 762
767 771 774 777 780 781 782 784 784 785 784 783 781 779 778 777 774 771 769 766 762 758
767 771 774 777 779 781 782 783 783 783 781 780 779 777 776 774 771 768 764 760 757 753
768 771 774 777 779 780 781 782 782 780 779 778 776 775 773 771 767 764 761 757 752 747
768 771 775 777 779 780 781 781 779 779 777 775 774 772 770 767 763 761 757 753 748 743
769 772 775 777 779 780 779 779 778 777 775 773 771 769 765 763 760 756 752 747 744 740
770 773 775 777 778 778 778 778 776 774 773 772 769 765 763 760 756 751 746 743 740 737
771 774 776 777 777 777 777 775 774 774 771 769 767 763 760 757 753 748 743 739 735 731
Wind_Speed
31 30 26 21 17 13 11 9 7 6 5 5 5 6 7 10 11 12 12 11 12 12
28 26 24 18 14 13 11 9 7 5 4 4 5 7 9 11 13 13 12 14 14 15
25 23 21 18 16 13 10 7 5 4 4 4 6 8 11 12 12 13 15 17 17 18
25 22 20 18 15 11 9 6 4 3 3 6 8 10 12 12 14 16 18 19 20 21
24 22 20 17 13 10 8 5 4 3 5 8 10 12 13 14 16 18 20 21 21 23
23 21 18 15 12 9 6 4 3 4 7 10 12 13 13 15 17 18 19 20 21 22
21 18 16 13 10 7 5 4 4 6 8 10 13 15 15 16 16 17 18 20 22 24
20 17 15 12 9 7 5 4 5 7 9 12 15 17 14 15 16 18 19 22 21 21
19 16 13 10 8 6 4 5 6 9 12 15 16 15 14 16 18 17 22 23 24 25
18 15 12 9 7 5 4 6 8 11 14 15 16 14 16 17 18 19 22 24 27 28
16 14 11 8 6 4 5 8 11 14 14 16 17 15 17 18 19 20 23 26 26 27
14 13 10 7 5 4 6 9 12 14 16 17 17 17 18 19 21 23 26 26 23 23
13 11 9 6 4 5 7 10 12 14 15 15 17 19 18 19 21 23 24 20 21 19
12 10 7 5 4 6 9 11 12 15 16 17 18 20 18 19 22 25 23 22 20 24
Wind_Direction
173 169 166 163 156 146 140 131 116 89 64 45 23 5 354 348 344 337 337 334 326 318
168 166 163 159 152 145 136 127 111 85 57 28 6 353 345 341 340 334 337 331 326 316
160 161 158 153 148 145 135 120 103 75 40 8 354 347 341 338 340 335 333 331 324 317
150 150 148 148 144 140 131 119 96 58 14 351 349 346 343 343 340 334 330 326 322 318
146 145 145 142 138 135 131 114 80 33 359 350 347 349 348 341 337 333 329 327 322 320
143 145 142 140 138 137 124 102 59 13 357 352 351 347 343 342 336 331 328 327 325 323
146 146 144 142 139 130 117 87 40 11 359 351 347 344 345 338 328 326 326 327 324 322
148 147 144 141 136 126 105 64 26 3 352 350 346 345 335 325 323 323 326 330 330 327
149 147 143 140 135 121 90 41 12 358 352 348 343 336 327 324 319 321 327 325 325 328
149 144 141 138 130 106 54 16 4 358 348 341 338 336 328 323 319 323 322 319 322 326
147 142 139 133 115 80 24 6 358 348 344 339 341 334 326 324 323 321 320 321 324 323
148 140 134 121 100 44 11 359 347 346 343 340 335 334 332 329 324 321 322 324 319 317
139 133 126 116 76 25 1 350 346 342 342 337 336 340 332 329 325 322 319 321 324 322
127 125 119 95 49 10 355 351 347 339 340 341 343 339 332 331 331 326 324 327 324 322